| time (UTC) | temp C | wind direction | speed KPH | gust KPH | rain 1hr cm | rain 24hr cm | rain mn cm | humidity % | barometer mb |
| 20260506232556 | 12 | 297 | 0.0 | 4.8 | 0.00 | 0.99 | 0.33 | 40 | 1014.1 |
| 20260506232056 | 12 | 297 | 1.6 | 4.8 | 0.00 | 1.02 | 0.33 | 39 | 1014.1 |
| 20260506231556 | 12 | 142 | 1.6 | 4.8 | 0.00 | 1.02 | 0.33 | 40 | 1014.3 |
| 20260506231056 | 11 | 22 | 0.0 | 4.8 | 0.00 | 1.02 | 0.33 | 39 | 1014.2 |
| 20260506230556 | 12 | 23 | 0.0 | 3.2 | 0.00 | 1.04 | 0.33 | 39 | 1014.3 |
| 20260506230327 | 12 | 23 | 1.6 | 4.8 | 0.00 | 1.04 | 0.33 | 38 | 1014.3 |
| 20260506225554 | 12 | 44 | 1.6 | 4.8 | 0.00 | 1.07 | 0.33 | 38 | 1014.3 |
| 20260506225054 | 12 | 309 | 0.0 | 4.8 | 0.00 | 1.09 | 0.33 | 39 | 1014.4 |
| 20260506224554 | 11 | 311 | 1.6 | 6.4 | 0.00 | 1.09 | 0.33 | 39 | 1014.4 |
| 20260506224053 | 11 | 333 | 1.6 | 6.4 | 0.00 | 1.12 | 0.33 | 38 | 1014.5 |
| 20260506223548 | 11 | 332 | 1.6 | 9.7 | 0.00 | 1.14 | 0.33 | 40 | 1014.3 |
| 20260506223042 | 11 | 257 | 1.6 | 9.7 | 0.00 | 1.14 | 0.33 | 39 | 1014.3 |
| 20260506222536 | 11 | 323 | 4.8 | 11.3 | 0.00 | 1.14 | 0.33 | 38 | 1014.4 |
| 20260506222032 | 11 | 296 | 4.8 | 11.3 | 0.00 | 1.14 | 0.33 | 39 | 1014.3 |
| 20260506221532 | 11 | 312 | 4.8 | 9.7 | 0.00 | 1.14 | 0.33 | 37 | 1014.4 |
| 20260506221032 | 11 | 329 | 6.4 | 12.9 | 0.00 | 1.17 | 0.33 | 38 | 1014.3 |
| 20260506220802 | 12 | 344 | 6.4 | 12.9 | 0.00 | 1.17 | 0.33 | 36 | 1014.3 |
| 20260506220030 | 12 | 298 | 4.8 | 14.5 | 0.00 | 1.17 | 0.33 | 38 | 1014.2 |
| 20260506215530 | 12 | 302 | 4.8 | 14.5 | 0.00 | 1.19 | 0.33 | 38 | 1014.3 |
| 20260506215030 | 12 | 336 | 3.2 | 11.3 | 0.00 | 1.22 | 0.33 | 37 | 1014.2 |
| 20260506214528 | 12 | 263 | 4.8 | 12.9 | 0.00 | 1.24 | 0.33 | 38 | 1014.2 |
| 20260506214025 | 12 | 323 | 4.8 | 17.7 | 0.00 | 1.24 | 0.33 | 38 | 1014.1 |
| 20260506213526 | 12 | 290 | 4.8 | 17.7 | 0.00 | 1.27 | 0.33 | 39 | 1014.1 |
| 20260506213026 | 12 | 316 | 4.8 | 12.9 | 0.00 | 1.27 | 0.33 | 37 | 1014.2 |
| 20260506212526 | 12 | 306 | 4.8 | 16.1 | 0.00 | 1.27 | 0.33 | 38 | 1014.0 |
| 20260506212026 | 12 | 275 | 4.8 | 16.1 | 0.00 | 1.27 | 0.33 | 38 | 1013.9 |
| 20260506211757 | 12 | 281 | 4.8 | 11.3 | 0.00 | 1.27 | 0.33 | 39 | 1013.7 |
| 20260506211029 | 12 | 239 | 3.2 | 14.5 | 0.00 | 1.27 | 0.33 | 39 | 1013.7 |
| 20260506210528 | 12 | 271 | 3.2 | 14.5 | 0.00 | 1.27 | 0.33 | 40 | 1013.8 |
| 20260506210028 | 12 | 275 | 1.6 | 6.4 | 0.00 | 1.30 | 0.33 | 40 | 1013.7 |
| 20260506205522 | 12 | 254 | 3.2 | 8.0 | 0.00 | 1.32 | 0.33 | 41 | 1013.8 |
| 20260506205020 | 12 | 287 | 3.2 | 9.7 | 0.00 | 1.35 | 0.33 | 42 | 1013.8 |
| 20260506204520 | 12 | 277 | 3.2 | 9.7 | 0.00 | 1.37 | 0.33 | 41 | 1013.7 |
| 20260506204019 | 12 | 282 | 3.2 | 9.7 | 0.00 | 1.40 | 0.33 | 41 | 1013.7 |
| 20260506203519 | 12 | 236 | 3.2 | 12.9 | 0.00 | 1.45 | 0.33 | 40 | 1013.7 |
| 20260506203250 | 12 | 260 | 3.2 | 12.9 | 0.00 | 1.47 | 0.33 | 39 | 1013.7 |
| 20260506202520 | 12 | 297 | 3.2 | 9.7 | 0.00 | 1.50 | 0.33 | 41 | 1013.8 |
| 20260506202020 | 12 | 332 | 4.8 | 12.9 | 0.00 | 1.55 | 0.33 | 41 | 1013.8 |
| 20260506201523 | 12 | 300 | 3.2 | 12.9 | 0.00 | 1.63 | 0.33 | 39 | 1013.9 |
| 20260506201519 | 12 | 326 | 3.2 | 12.9 | 0.00 | 1.57 | 0.33 | 39 | 1013.9 |
| 20260506200752 | 12 | 268 | 3.2 | 14.5 | 0.00 | 1.68 | 0.33 | 39 | 1013.9 |
| 20260506200020 | 12 | 242 | 1.6 | 14.5 | 0.00 | 1.73 | 0.33 | 38 | 1013.9 |
| 20260506195519 | 12 | 262 | 1.6 | 6.4 | 0.00 | 1.75 | 0.33 | 40 | 1014.0 |
| 20260506195020 | 12 | 239 | 1.6 | 8.0 | 0.00 | 1.80 | 0.33 | 39 | 1014.1 |
| 20260506194520 | 12 | 296 | 3.2 | 8.0 | 0.00 | 1.83 | 0.33 | 40 | 1013.9 |
| 20260506194024 | 12 | 314 | 4.8 | 12.9 | 0.00 | 1.88 | 0.33 | 39 | 1013.8 |
| 20260506194020 | 12 | 266 | 3.2 | 8.0 | 0.00 | 1.85 | 0.33 | 39 | 1013.9 |
| 20260506193020 | 12 | 308 | 3.2 | 12.9 | 0.00 | 1.88 | 0.33 | 39 | 1013.8 |
| 20260506192520 | 12 | 275 | 3.2 | 9.7 | 0.00 | 1.91 | 0.33 | 41 | 1013.9 |
| 20260506192017 | 12 | 231 | 3.2 | 9.7 | 0.00 | 1.91 | 0.33 | 38 | 1013.8 |
| 20260506191518 | 12 | 293 | 3.2 | 11.3 | 0.00 | 1.93 | 0.33 | 38 | 1013.7 |
| 20260506191249 | 12 | 255 | 3.2 | 11.3 | 0.00 | 1.96 | 0.33 | 38 | 1013.8 |
| 20260506190518 | 12 | 300 | 3.2 | 6.4 | 0.00 | 2.01 | 0.33 | 40 | 1013.9 |
| 20260506190013 | 11 | 340 | 4.8 | 12.9 | 0.00 | 2.03 | 0.33 | 39 | 1013.9 |
| 20260506185514 | 11 | 299 | 4.8 | 14.5 | 0.00 | 2.06 | 0.33 | 39 | 1013.9 |
| 20260506185014 | 11 | 304 | 4.8 | 14.5 | 0.00 | 2.08 | 0.33 | 37 | 1013.9 |
| 20260506184745 | 11 | 320 | 4.8 | 16.1 | 0.00 | 2.11 | 0.33 | 38 | 1013.9 |
| 20260506184244 | 12 | 267 | 6.4 | 16.1 | 0.00 | 2.13 | 0.33 | 36 | 1014.1 |
| 20260506183514 | 12 | 302 | 4.8 | 16.1 | 0.00 | 2.16 | 0.33 | 38 | 1014.1 |
| 20260506183014 | 12 | 306 | 6.4 | 16.1 | 0.00 | 2.18 | 0.33 | 40 | 1014.1 |
| 20260506182514 | 12 | 321 | 6.4 | 12.9 | 0.00 | 2.18 | 0.33 | 39 | 1013.9 |
| 20260506182013 | 12 | 290 | 6.4 | 12.9 | 0.00 | 2.21 | 0.33 | 39 | 1014.0 |
| 20260506181509 | 12 | 348 | 4.8 | 9.7 | 0.00 | 2.21 | 0.33 | 37 | 1013.8 |
| 20260506181010 | 12 | 346 | 4.8 | 11.3 | 0.00 | 2.24 | 0.33 | 38 | 1013.6 |
| 20260506180510 | 12 | 325 | 4.8 | 14.5 | 0.00 | 2.24 | 0.33 | 37 | 1013.6 |
| 20260506180010 | 12 | 317 | 4.8 | 16.1 | 0.00 | 2.24 | 0.33 | 39 | 1013.9 |
| 20260506175510 | 12 | 307 | 6.4 | 17.7 | 0.00 | 2.24 | 0.33 | 38 | 1013.8 |
| 20260506175240 | 12 | 305 | 4.8 | 17.7 | 0.00 | 2.24 | 0.33 | 38 | 1013.9 |
| 20260506174510 | 12 | 15 | 4.8 | 14.5 | 0.00 | 2.26 | 0.33 | 37 | 1013.7 |
| 20260506174009 | 12 | 290 | 4.8 | 14.5 | 0.00 | 2.26 | 0.33 | 39 | 1013.8 |
| 20260506173510 | 12 | 298 | 4.8 | 16.1 | 0.00 | 2.26 | 0.33 | 36 | 1013.7 |
| 20260506173003 | 12 | 321 | 6.4 | 17.7 | 0.00 | 2.26 | 0.33 | 39 | 1013.8 |
| 20260506172449 | 12 | 348 | 8.0 | 19.3 | 0.00 | 2.29 | 0.33 | 35 | 1013.7 |
| 20260506172221 | 12 | 298 | 8.0 | 19.3 | 0.00 | 2.31 | 0.33 | 38 | 1013.6 |
| 20260506171721 | 12 | 336 | 6.4 | 17.7 | 0.00 | 2.34 | 0.33 | 37 | 1013.8 |
| 20260506170950 | 12 | 350 | 4.8 | 16.1 | 0.00 | 2.36 | 0.33 | 41 | 1013.7 |
| 20260506170450 | 12 | 322 | 4.8 | 16.1 | 0.00 | 2.39 | 0.33 | 38 | 1013.8 |
| 20260506170220 | 12 | 342 | 4.8 | 14.5 | 0.00 | 2.39 | 0.33 | 39 | 1013.8 |
| 20260506165447 | 12 | 337 | 6.4 | 16.1 | 0.00 | 2.41 | 0.33 | 38 | 1013.9 |
| 20260506165219 | 12 | 318 | 6.4 | 16.1 | 0.00 | 2.41 | 0.33 | 37 | 1014.0 |
| 20260506164446 | 12 | 298 | 6.4 | 17.7 | 0.00 | 2.44 | 0.33 | 39 | 1014.0 |
| 20260506163945 | 12 | 274 | 6.4 | 17.7 | 0.00 | 2.44 | 0.33 | 37 | 1014.1 |
| 20260506163445 | 12 | 296 | 6.4 | 19.3 | 0.00 | 2.46 | 0.33 | 40 | 1014.2 |
| 20260506162941 | 12 | 282 | 6.4 | 19.3 | 0.00 | 2.46 | 0.33 | 37 | 1013.9 |
| 20260506162441 | 12 | 287 | 4.8 | 14.5 | 0.00 | 2.49 | 0.33 | 39 | 1013.7 |
| 20260506161940 | 12 | 42 | 4.8 | 12.9 | 0.00 | 2.49 | 0.33 | 39 | 1013.6 |
| 20260506161439 | 12 | 336 | 3.2 | 11.3 | 0.00 | 2.51 | 0.33 | 42 | 1013.8 |
| 20260506160933 | 12 | 333 | 3.2 | 16.1 | 0.00 | 2.51 | 0.33 | 43 | 1013.9 |
| 20260506160427 | 12 | 342 | 4.8 | 16.1 | 0.00 | 2.54 | 0.33 | 41 | 1014.1 |
| 20260506155921 | 12 | 302 | 6.4 | 17.7 | 0.00 | 2.57 | 0.33 | 43 | 1013.9 |
| 20260506155419 | 11 | 338 | 4.8 | 17.7 | 0.00 | 2.59 | 0.33 | 39 | 1013.9 |
| 20260506154919 | 11 | 335 | 3.2 | 9.7 | 0.00 | 2.59 | 0.33 | 45 | 1014.0 |
| 20260506154419 | 11 | 342 | 3.2 | 14.5 | 0.00 | 2.59 | 0.33 | 45 | 1013.8 |
| 20260506153919 | 11 | 336 | 3.2 | 14.5 | 0.00 | 2.59 | 0.33 | 44 | 1013.8 |
| 20260506153651 | 11 | 355 | 3.2 | 11.3 | 0.00 | 2.59 | 0.33 | 43 | 1013.7 |
| 20260506152922 | 11 | 301 | 4.8 | 12.9 | 0.00 | 2.59 | 0.33 | 47 | 1013.7 |
| 20260506152418 | 11 | 335 | 4.8 | 12.9 | 0.00 | 2.59 | 0.33 | 46 | 1013.7 |
| 20260506152147 | 11 | 64 | 4.8 | 12.9 | 0.00 | 2.59 | 0.33 | 49 | 1013.7 |
| 20260506151415 | 11 | 350 | 6.4 | 16.1 | 0.00 | 2.59 | 0.33 | 48 | 1013.6 |
| 20260506150915 | 11 | 340 | 4.8 | 16.1 | 0.00 | 2.59 | 0.33 | 47 | 1013.3 |
| 20260506150413 | 11 | 311 | 4.8 | 14.5 | 0.00 | 2.59 | 0.33 | 49 | 1013.3 |
| 20260506145913 | 11 | 338 | 4.8 | 14.5 | 0.00 | 2.59 | 0.33 | 48 | 1013.3 |
| 20260506145646 | 11 | 340 | 6.4 | 14.5 | 0.00 | 2.59 | 0.33 | 48 | 1013.2 |
| 20260506144914 | 10 | 286 | 6.4 | 14.5 | 0.00 | 2.59 | 0.33 | 50 | 1013.3 |
| 20260506144411 | 10 | 318 | 4.8 | 12.9 | 0.00 | 2.59 | 0.33 | 50 | 1013.2 |
| 20260506144143 | 10 | 273 | 3.2 | 12.9 | 0.00 | 2.59 | 0.33 | 53 | 1013.0 |
| 20260506143411 | 10 | 355 | 3.2 | 12.9 | 0.00 | 2.59 | 0.33 | 51 | 1013.0 |
| 20260506142905 | 10 | 338 | 3.2 | 11.3 | 0.00 | 2.59 | 0.33 | 50 | 1013.1 |
| 20260506142359 | 10 | 321 | 4.8 | 11.3 | 0.00 | 2.59 | 0.33 | 54 | 1013.2 |
| 20260506141852 | 10 | 347 | 4.8 | 11.3 | 0.00 | 2.59 | 0.33 | 51 | 1013.2 |
| 20260506141346 | 10 | 339 | 4.8 | 11.3 | 0.00 | 2.59 | 0.33 | 53 | 1013.0 |
| 20260506140840 | 10 | 300 | 3.2 | 12.9 | 0.00 | 2.59 | 0.33 | 55 | 1013.0 |
| 20260506140334 | 10 | 324 | 4.8 | 12.9 | 0.00 | 2.59 | 0.33 | 55 | 1012.7 |
| 20260506135828 | 9 | 312 | 6.4 | 16.1 | 0.00 | 2.59 | 0.33 | 55 | 1012.6 |
| 20260506135322 | 9 | 313 | 8.0 | 16.1 | 0.00 | 2.59 | 0.33 | 55 | 1012.6 |
| 20260506134817 | 9 | 311 | 6.4 | 16.1 | 0.00 | 2.59 | 0.33 | 55 | 1012.5 |
| 20260506134311 | 9 | 344 | 4.8 | 14.5 | 0.00 | 2.59 | 0.33 | 57 | 1012.6 |
| 20260506133805 | 8 | 318 | 4.8 | 12.9 | 0.00 | 2.59 | 0.33 | 58 | 1012.6 |
| 20260506133258 | 8 | 327 | 4.8 | 12.9 | 0.00 | 2.59 | 0.33 | 58 | 1012.6 |
| 20260506132752 | 8 | 305 | 4.8 | 12.9 | 0.00 | 2.59 | 0.33 | 59 | 1012.5 |
| 20260506132247 | 8 | 333 | 4.8 | 9.7 | 0.00 | 2.59 | 0.33 | 60 | 1012.6 |
| 20260506131741 | 7 | 336 | 3.2 | 6.4 | 0.00 | 2.59 | 0.33 | 61 | 1012.6 |
| 20260506131235 | 7 | 306 | 3.2 | 8.0 | 0.00 | 2.59 | 0.33 | 62 | 1012.6 |
| 20260506130728 | 7 | 306 | 3.2 | 8.0 | 0.00 | 2.59 | 0.33 | 63 | 1012.6 |
| 20260506130223 | 7 | 260 | 3.2 | 12.9 | 0.00 | 2.59 | 0.33 | 64 | 1012.5 |
| 20260506125948 | 7 | 294 | 3.2 | 12.9 | 0.00 | 2.59 | 0.33 | 64 | 1012.3 |
| 20260506125210 | 7 | 309 | 3.2 | 8.0 | 0.00 | 2.59 | 0.33 | 67 | 1012.2 |
| 20260506124704 | 7 | 308 | 3.2 | 9.7 | 0.00 | 2.59 | 0.33 | 67 | 1012.3 |
| 20260506124159 | 7 | 311 | 4.8 | 14.5 | 0.00 | 2.59 | 0.33 | 67 | 1012.2 |
| 20260506123652 | 6 | 313 | 3.2 | 14.5 | 0.00 | 2.59 | 0.33 | 68 | 1012.3 |
| 20260506123417 | 7 | 311 | 1.6 | 3.2 | 0.00 | 2.59 | 0.33 | 73 | 1012.1 |
| 20260506122641 | 6 | 316 | 0.0 | 3.2 | 0.00 | 2.59 | 0.33 | 73 | 1012.0 |
| 20260506122135 | 6 | 324 | 1.6 | 4.8 | 0.00 | 2.59 | 0.33 | 74 | 1011.8 |
| 20260506121901 | 6 | 324 | 3.2 | 6.4 | 0.00 | 2.59 | 0.33 | 73 | 1011.8 |
| 20260506121354 | 6 | 324 | 4.8 | 11.3 | 0.00 | 2.59 | 0.33 | 74 | 1011.8 |
| 20260506120616 | 6 | 306 | 4.8 | 11.3 | 0.00 | 2.59 | 0.33 | 74 | 1011.8 |
| 20260506120341 | 6 | 304 | 3.2 | 9.7 | 0.00 | 2.59 | 0.33 | 74 | 1011.8 |
| 20260506115605 | 6 | 326 | 3.2 | 11.3 | 0.00 | 2.59 | 0.33 | 74 | 1011.9 |
| 20260506115059 | 6 | 327 | 4.8 | 11.3 | 0.00 | 2.59 | 0.33 | 74 | 1011.8 |
| 20260506114552 | 6 | 308 | 3.2 | 8.0 | 0.00 | 2.59 | 0.33 | 74 | 1011.6 |
| 20260506114046 | 6 | 304 | 0.0 | 4.8 | 0.00 | 2.59 | 0.33 | 74 | 1011.4 |
| 20260506113540 | 6 | 299 | 1.6 | 6.4 | 0.00 | 2.59 | 0.33 | 74 | 1011.3 |
| 20260506113034 | 6 | 284 | 1.6 | 6.4 | 0.00 | 2.59 | 0.33 | 74 | 1011.3 |
| 20260506112529 | 6 | 313 | 0.0 | 4.8 | 0.00 | 2.59 | 0.33 | 74 | 1011.1 |
| 20260506112023 | 6 | 314 | 1.6 | 4.8 | 0.00 | 2.59 | 0.33 | 74 | 1010.9 |
| 20260506111517 | 6 | 295 | 1.6 | 4.8 | 0.00 | 2.59 | 0.33 | 74 | 1010.9 |
| 20260506111241 | 6 | 302 | 1.6 | 4.8 | 0.00 | 2.59 | 0.33 | 75 | 1010.9 |
| 20260506110505 | 6 | 302 | 1.6 | 4.8 | 0.00 | 2.59 | 0.33 | 74 | 1010.9 |
| 20260506110229 | 6 | 302 | 1.6 | 3.2 | 0.00 | 2.59 | 0.33 | 74 | 1010.7 |
| 20260506105453 | 6 | 302 | 1.6 | 3.2 | 0.00 | 2.59 | 0.33 | 74 | 1010.8 |
| 20260506104951 | 6 | 302 | 0.0 | 3.2 | 0.00 | 2.59 | 0.33 | 74 | 1010.8 |
| 20260506104451 | 6 | 302 | 0.0 | 3.2 | 0.00 | 2.59 | 0.33 | 74 | 1010.7 |
| 20260506103950 | 6 | 302 | 0.0 | 3.2 | 0.00 | 2.59 | 0.33 | 74 | 1010.8 |
| 20260506103455 | 6 | 302 | 0.0 | 3.2 | 0.00 | 2.59 | 0.33 | 74 | 1010.8 |
| 20260506103451 | 6 | 302 | 0.0 | 3.2 | 0.00 | 2.59 | 0.33 | 74 | 1010.9 |
| 20260506102447 | 6 | 303 | 1.6 | 4.8 | 0.00 | 2.59 | 0.33 | 74 | 1010.6 |
| 20260506101945 | 6 | 303 | 1.6 | 4.8 | 0.00 | 2.59 | 0.33 | 74 | 1010.6 |
| 20260506101443 | 6 | 302 | 1.6 | 4.8 | 0.00 | 2.59 | 0.33 | 74 | 1010.4 |
| 20260506101218 | 6 | 302 | 1.6 | 8.0 | 0.00 | 2.59 | 0.33 | 74 | 1010.3 |
| 20260506100943 | 6 | 302 | 1.6 | 4.8 | 0.00 | 2.59 | 0.33 | 74 | 1010.3 |
| 20260506095941 | 6 | 302 | 3.2 | 8.0 | 0.00 | 2.59 | 0.33 | 74 | 1010.6 |
| 20260506095440 | 6 | 337 | 1.6 | 4.8 | 0.00 | 2.59 | 0.33 | 74 | 1010.4 |
| 20260506094938 | 6 | 0 | 1.6 | 4.8 | 0.00 | 2.59 | 0.33 | 74 | 1010.1 |
| 20260506094439 | 6 | 0 | 1.6 | 4.8 | 0.00 | 2.59 | 0.33 | 74 | 1009.8 |
| 20260506093938 | 6 | 5 | 1.6 | 3.2 | 0.00 | 2.59 | 0.33 | 74 | 1010.0 |
| 20260506093436 | 6 | 5 | 1.6 | 4.8 | 0.00 | 2.59 | 0.33 | 74 | 1009.9 |
| 20260506092937 | 6 | 5 | 1.6 | 4.8 | 0.00 | 2.59 | 0.33 | 74 | 1010.0 |
| 20260506092437 | 6 | 5 | 1.6 | 4.8 | 0.00 | 2.59 | 0.33 | 74 | 1010.1 |
| 20260506091936 | 6 | 9 | 0.0 | 4.8 | 0.00 | 2.59 | 0.33 | 74 | 1009.9 |
| 20260506091437 | 6 | 9 | 0.0 | 4.8 | 0.03 | 2.59 | 0.33 | 74 | 1010.1 |
| 20260506090936 | 6 | 9 | 1.6 | 4.8 | 0.03 | 2.59 | 0.33 | 74 | 1009.9 |
| 20260506090435 | 6 | 9 | 1.6 | 4.8 | 0.03 | 2.59 | 0.33 | 74 | 1010.1 |
| 20260506085935 | 6 | 9 | 1.6 | 3.2 | 0.03 | 2.59 | 0.33 | 74 | 1010.2 |
| 20260506085435 | 6 | 9 | 1.6 | 4.8 | 0.03 | 2.59 | 0.33 | 75 | 1010.4 |
| 20260506084934 | 6 | 10 | 1.6 | 4.8 | 0.03 | 2.59 | 0.33 | 74 | 1010.5 |
| 20260506084433 | 6 | 11 | 1.6 | 4.8 | 0.03 | 2.59 | 0.33 | 74 | 1010.1 |
| 20260506083933 | 6 | 13 | 0.0 | 0.0 | 0.03 | 2.59 | 0.33 | 74 | 1009.7 |
| 20260506083431 | 6 | 13 | 0.0 | 0.0 | 0.03 | 2.59 | 0.33 | 74 | 1009.6 |
| 20260506082931 | 6 | 13 | 0.0 | 0.0 | 0.03 | 2.59 | 0.33 | 74 | 1009.7 |
| 20260506082430 | 6 | 13 | 0.0 | 0.0 | 0.03 | 2.59 | 0.33 | 74 | 1010.0 |
| 20260506082159 | 6 | 13 | 0.0 | 0.0 | 0.03 | 2.59 | 0.33 | 74 | 1010.0 |
| 20260506081422 | 6 | 13 | 0.0 | 0.0 | 0.00 | 2.57 | 0.30 | 74 | 1009.9 |
| 20260506080921 | 6 | 13 | 0.0 | 0.0 | 0.00 | 2.57 | 0.30 | 74 | 1010.0 |
| 20260506080421 | 6 | 13 | 0.0 | 1.6 | 0.03 | 2.57 | 0.30 | 74 | 1010.1 |
| 20260506080153 | 6 | 13 | 0.0 | 3.2 | 0.03 | 2.57 | 0.30 | 74 | 1010.2 |
| 20260506073418 | 6 | 17 | 0.0 | 0.0 | 0.08 | 2.57 | 0.30 | 74 | 1010.0 |
| 20260506072918 | 6 | 339 | 0.0 | 0.0 | 0.08 | 2.57 | 0.30 | 74 | 1009.7 |
| 20260506072646 | 6 | 339 | 0.0 | 0.0 | 0.08 | 2.57 | 0.30 | 74 | 1009.5 |
| 20260506071914 | 6 | 338 | 0.0 | 0.0 | 0.10 | 2.57 | 0.30 | 74 | 1009.4 |
| 20260506071421 | 6 | 338 | 0.0 | 0.0 | 0.10 | 2.57 | 0.30 | 74 | 1009.7 |
| 20260506071414 | 6 | 338 | 0.0 | 0.0 | 0.10 | 2.57 | 0.30 | 74 | 1009.6 |
| 20260506070414 | 6 | 338 | 0.0 | 0.0 | 0.08 | 2.54 | 0.28 | 74 | 1009.8 |
| 20260506062411 | 6 | 338 | 1.6 | 3.2 | 0.10 | 2.49 | 0.23 | 74 | 1010.4 |
| 20260506061910 | 6 | 338 | 0.0 | 3.2 | 0.08 | 2.46 | 0.20 | 74 | 1010.5 |
| 20260506061410 | 6 | 338 | 0.0 | 3.2 | 0.10 | 2.46 | 0.20 | 74 | 1010.3 |
| 20260506060910 | 6 | 338 | 1.6 | 3.2 | 0.10 | 2.46 | 0.20 | 74 | 1010.2 |
| 20260506060410 | 6 | 338 | 1.6 | 3.2 | 0.13 | 2.46 | 0.20 | 74 | 1010.1 |
| 20260506051358 | 7 | 317 | 0.0 | 0.0 | 0.08 | 2.36 | 0.13 | 74 | 1009.7 |
| 20260506050857 | 7 | 317 | 0.0 | 0.0 | 0.08 | 2.36 | 0.10 | 74 | 1009.6 |
| 20260506050357 | 7 | 317 | 0.0 | 0.0 | 0.08 | 2.34 | 0.08 | 74 | 1010.2 |
| 20260506045124 | 7 | 317 | 0.0 | 0.0 | 0.08 | 2.31 | 0.05 | 74 | 1010.4 |
| 20260506044352 | 7 | 316 | 0.0 | 0.0 | 0.08 | 2.31 | 0.05 | 74 | 1010.3 |
| 20260506043855 | 7 | 316 | 0.0 | 0.0 | 0.10 | 2.31 | 0.05 | 74 | 1010.3 |
| 20260506043354 | 7 | 316 | 0.0 | 0.0 | 0.08 | 2.29 | 0.03 | 74 | 1010.3 |
| 20260506042848 | 7 | 316 | 0.0 | 0.0 | 0.08 | 2.29 | 0.03 | 74 | 1010.2 |
| 20260506042342 | 7 | 316 | 0.0 | 0.0 | 0.10 | 2.29 | 0.03 | 74 | 1010.0 |
| 20260506041836 | 7 | 316 | 0.0 | 1.6 | 0.10 | 2.29 | 0.03 | 74 | 1009.9 |
| 20260506041328 | 7 | 315 | 0.0 | 1.6 | 0.10 | 2.29 | 0.03 | 74 | 1009.8 |
| 20260506040825 | 7 | 315 | 0.0 | 3.2 | 0.08 | 2.26 | 0.00 | 74 | 1009.9 |
| 20260506040318 | 7 | 315 | 1.6 | 4.8 | 0.08 | 2.26 | 0.00 | 74 | 1009.9 |
| 20260506035812 | 7 | 315 | 0.0 | 3.2 | 0.10 | 2.26 | 2.26 | 74 | 1010.0 |
| 20260506035306 | 7 | 315 | 0.0 | 1.6 | 0.10 | 2.24 | 2.24 | 74 | 1010.0 |
| 20260506034800 | 7 | 313 | 0.0 | 1.6 | 0.10 | 2.24 | 2.24 | 74 | 1010.1 |
| 20260506034254 | 7 | 313 | 1.6 | 6.4 | 0.13 | 2.24 | 2.24 | 74 | 1010.1 |
| 20260506033747 | 7 | 313 | 3.2 | 6.4 | 0.13 | 2.21 | 2.21 | 74 | 1010.3 |
| 20260506033510 | 7 | 306 | 1.6 | 6.4 | 0.13 | 2.21 | 2.21 | 74 | 1010.4 |
| 20260506032734 | 7 | 34 | 1.6 | 4.8 | 0.15 | 2.21 | 2.21 | 74 | 1010.3 |
| 20260506032228 | 7 | 36 | 1.6 | 4.8 | 0.15 | 2.18 | 2.18 | 74 | 1010.3 |
| 20260506031953 | 7 | 40 | 1.6 | 4.8 | 0.15 | 2.18 | 2.18 | 74 | 1010.3 |
| 20260506031217 | 7 | 53 | 1.6 | 3.2 | 0.18 | 2.18 | 2.18 | 74 | 1010.2 |
| 20260506030710 | 7 | 54 | 0.0 | 1.6 | 0.20 | 2.18 | 2.18 | 74 | 1010.3 |
| 20260506030204 | 7 | 54 | 0.0 | 1.6 | 0.18 | 2.16 | 2.16 | 74 | 1010.1 |
| 20260506025658 | 7 | 54 | 0.0 | 0.0 | 0.20 | 2.16 | 2.16 | 74 | 1010.1 |
| 20260506025149 | 7 | 54 | 0.0 | 0.0 | 0.20 | 2.13 | 2.13 | 74 | 1010.2 |
| 20260506024643 | 7 | 54 | 0.0 | 1.6 | 0.20 | 2.13 | 2.13 | 74 | 1010.2 |
| 20260506024137 | 7 | 54 | 1.6 | 11.3 | 0.20 | 2.11 | 2.11 | 74 | 1010.2 |
| 20260506023630 | 7 | 54 | 3.2 | 16.1 | 0.20 | 2.08 | 2.08 | 74 | 1010.3 |
| 20260506023124 | 8 | 88 | 3.2 | 16.1 | 0.23 | 2.08 | 2.08 | 74 | 1010.1 |
| 20260506022618 | 8 | 346 | 0.0 | 4.8 | 0.20 | 2.06 | 2.06 | 74 | 1010.1 |
| 20260506022112 | 8 | 346 | 0.0 | 1.6 | 0.20 | 2.03 | 2.03 | 74 | 1010.1 |
| 20260506021605 | 8 | 346 | 0.0 | 1.6 | 0.20 | 2.03 | 2.03 | 74 | 1010.3 |
| 20260506021100 | 8 | 346 | 0.0 | 0.0 | 0.20 | 2.01 | 2.01 | 74 | 1010.3 |
| 20260506020554 | 8 | 346 | 0.0 | 0.0 | 0.18 | 1.98 | 1.98 | 74 | 1010.3 |
| 20260506020048 | 8 | 346 | 0.0 | 1.6 | 0.18 | 1.96 | 1.96 | 74 | 1010.3 |
| 20260506015542 | 8 | 346 | 0.0 | 3.2 | 0.18 | 1.96 | 1.96 | 74 | 1010.2 |
| 20260506015036 | 8 | 346 | 0.0 | 3.2 | 0.18 | 1.93 | 1.93 | 74 | 1010.0 |
| 20260506014530 | 8 | 339 | 0.0 | 1.6 | 0.15 | 1.91 | 1.91 | 74 | 1010.0 |
| 20260506014024 | 8 | 339 | 0.0 | 3.2 | 0.15 | 1.88 | 1.91 | 74 | 1009.9 |
| 20260506013518 | 8 | 339 | 0.0 | 4.8 | 0.15 | 1.88 | 1.88 | 74 | 1009.7 |
| 20260506013011 | 8 | 338 | 0.0 | 4.8 | 0.15 | 1.85 | 1.85 | 74 | 1009.8 |
| 20260506012505 | 8 | 338 | 1.6 | 4.8 | 0.15 | 1.85 | 1.85 | 74 | 1010.1 |
| 20260506012000 | 8 | 338 | 1.6 | 6.4 | 0.15 | 1.83 | 1.83 | 74 | 1010.1 |
| 20260506011454 | 8 | 338 | 1.6 | 6.4 | 0.15 | 1.83 | 1.83 | 74 | 1009.9 |
| 20260506011218 | 8 | 342 | 1.6 | 4.8 | 0.15 | 1.80 | 1.80 | 74 | 1009.9 |
| 20260506010441 | 8 | 342 | 1.6 | 4.8 | 0.18 | 1.80 | 1.80 | 74 | 1009.7 |
| 20260506005936 | 8 | 342 | 1.6 | 8.0 | 0.15 | 1.78 | 1.78 | 74 | 1009.6 |
| 20260506005430 | 8 | 342 | 1.6 | 8.0 | 0.13 | 1.75 | 1.78 | 74 | 1009.7 |
| 20260506004924 | 8 | 339 | 0.0 | 6.4 | 0.13 | 1.75 | 1.75 | 74 | 1009.8 |
| 20260506004418 | 8 | 321 | 0.0 | 3.2 | 0.13 | 1.75 | 1.75 | 74 | 1009.8 |
| 20260506003912 | 8 | 321 | 1.6 | 4.8 | 0.13 | 1.73 | 1.73 | 74 | 1009.5 |
| 20260506003406 | 8 | 321 | 1.6 | 4.8 | 0.13 | 1.73 | 1.73 | 74 | 1009.5 |
| 20260506003131 | 8 | 321 | 3.2 | 4.8 | 0.10 | 1.70 | 1.70 | 74 | 1009.5 |
| 20260506002354 | 8 | 321 | 3.2 | 6.4 | 0.08 | 1.68 | 1.68 | 74 | 1009.4 |
| 20260506001848 | 8 | 322 | 1.6 | 6.4 | 0.10 | 1.68 | 1.68 | 74 | 1009.4 |
| 20260506001342 | 8 | 319 | 0.0 | 3.2 | 0.10 | 1.68 | 1.68 | 74 | 1009.4 |
| 20260506000835 | 8 | 319 | 0.0 | 6.4 | 0.08 | 1.65 | 1.65 | 74 | 1009.4 |
| 20260506000330 | 8 | 319 | 1.6 | 6.4 | 0.08 | 1.63 | 1.63 | 74 | 1009.4 |
| 20260505235823 | 8 | 331 | 1.6 | 6.4 | 0.10 | 1.63 | 1.63 | 74 | 1009.4 |
| 20260505235318 | 8 | 333 | 1.6 | 4.8 | 0.10 | 1.63 | 1.63 | 74 | 1009.3 |
| 20260505234812 | 8 | 335 | 1.6 | 6.4 | 0.13 | 1.63 | 1.63 | 74 | 1009.4 |
| 20260505234306 | 8 | 335 | 1.6 | 6.4 | 0.15 | 1.63 | 1.63 | 74 | 1009.3 |
| 20260505233800 | 8 | 336 | 3.2 | 12.9 | 0.13 | 1.60 | 1.60 | 74 | 1009.2 |
| 20260505233254 | 8 | 336 | 4.8 | 12.9 | 0.15 | 1.60 | 1.60 | 74 | 1009.4 |